• In Latvia
  • List of Countries
  • For 7 days
  • Water Temperature
  • Satellite Maps
  • Weather Map
  • Weather Widgets
  • user-avatar
    Login

    Hourly Weather Yulara

    Today, 23 September, Saturday

    Time Temperature Precipitation Wind Pressure Humidity
    00:00 +27°C° 0 mm 6 mps 714 mmHg 12%
    01:00 +26°C° 0 mm 6 mps 714 mmHg 13%
    02:00 +26°C° 0 mm 6 mps 714 mmHg 14%
    03:00 +25°C° 0 mm 5 mps 713 mmHg 14%
    04:00 +25°C° 0 mm 5 mps 713 mmHg 15%
    05:00 +23°C° 0 mm 5 mps 713 mmHg 17%
    06:00 +22°C° 0 mm 5 mps 714 mmHg 18%
    07:00 +25°C° 0 mm 5 mps 714 mmHg 17%
    08:00 +28°C° 0 mm 6 mps 715 mmHg 17%
    09:00 +32°C° 0 mm 7 mps 715 mmHg 14%
    10:00 +33°C° 0 mm 7 mps 715 mmHg 12%
    11:00 +35°C° 0 mm 8 mps 715 mmHg 11%
    12:00 +38°C° 0 mm 8 mps 715 mmHg 10%
    13:00 +38°C° 0 mm 9 mps 714 mmHg 10%
    14:00 +38°C° 0 mm 10 mps 714 mmHg 9%
    15:00 +38°C° 0 mm 10 mps 713 mmHg 10%
    16:00 +37°C° 0 mm 9 mps 713 mmHg 11%
    17:00 +35°C° 0 mm 9 mps 713 mmHg 12%
    18:00 +34°C° 0 mm 8 mps 713 mmHg 13%
    19:00 +32°C° 0 mm 7 mps 714 mmHg 15%
    20:00 +29°C° 0 mm 6 mps 714 mmHg 17%
    21:00 +27°C° 0 mm 5 mps 715 mmHg 20%
    22:00 +26°C° 0 mm 5 mps 715 mmHg 22%
    23:00 +25°C° 0 mm 5 mps 715 mmHg 24%

    Tomorrow, 24 September, Sunday

    Time Temperature Precipitation Wind Pressure Humidity
    00:00 +23°C° 0 mm 4 mps 715 mmHg 26%
    01:00 +22°C° 0 mm 4 mps 714 mmHg 27%
    02:00 +21°C° 0 mm 4 mps 714 mmHg 28%
    03:00 +20°C° 0 mm 3 mps 714 mmHg 29%
    04:00 +19°C° 0 mm 3 mps 714 mmHg 30%
    05:00 +18°C° 0 mm 2 mps 714 mmHg 30%
    06:00 +18°C° 0 mm 2 mps 714 mmHg 31%
    07:00 +20°C° 0 mm 2 mps 715 mmHg 27%
    08:00 +24°C° 0 mm 3 mps 715 mmHg 23%
    09:00 +26°C° 0 mm 3 mps 716 mmHg 19%
    10:00 +29°C° 0 mm 5 mps 715 mmHg 17%
    11:00 +32°C° 0 mm 6 mps 715 mmHg 15%
    12:00 +35°C° 0 mm 7 mps 714 mmHg 13%
    13:00 +35°C° 0 mm 8 mps 714 mmHg 12%
    14:00 +37°C° 0 mm 9 mps 713 mmHg 12%
    15:00 +38°C° 0 mm 10 mps 712 mmHg 11%
    16:00 +37°C° 0 mm 9 mps 712 mmHg 12%
    17:00 +35°C° 0 mm 8 mps 712 mmHg 12%
    18:00 +34°C° 0 mm 7 mps 712 mmHg 12%
    19:00 +33°C° 0 mm 6 mps 712 mmHg 14%
    20:00 +30°C° 0 mm 6 mps 713 mmHg 15%
    21:00 +28°C° 0 mm 5 mps 713 mmHg 16%
    22:00 +27°C° 0 mm 5 mps 713 mmHg 17%
    23:00 +27°C° 0 mm 5 mps 713 mmHg 18%

    Day after tomorrow, 25 September, Monday

    Time Temperature Precipitation Wind Pressure Humidity
    00:00 +26°C° 0 mm 5 mps 713 mmHg 19%
    01:00 +25°C° 0 mm 5 mps 713 mmHg 19%
    02:00 +23°C° 0 mm 4 mps 712 mmHg 19%
    03:00 +22°C° 0 mm 4 mps 712 mmHg 19%
    04:00 +21°C° 0 mm 3 mps 712 mmHg 19%
    05:00 +20°C° 0 mm 3 mps 712 mmHg 20%
    06:00 +18°C° 0 mm 2 mps 712 mmHg 21%
    07:00 +22°C° 0 mm 3 mps 713 mmHg 18%
    08:00 +26°C° 0 mm 3 mps 714 mmHg 14%
    09:00 +29°C° 0 mm 4 mps 714 mmHg 11%
    10:00 +32°C° 0 mm 7 mps 714 mmHg 10%
    11:00 +34°C° 0 mm 9 mps 714 mmHg 9%
    12:00 +37°C° 0 mm 11 mps 714 mmHg 8%
    13:00 +38°C° 0 mm 12 mps 713 mmHg 7%
    14:00 +38°C° 0 mm 12 mps 712 mmHg 7%
    15:00 +38°C° 0 mm 12 mps 712 mmHg 6%
    16:00 +37°C° 0 mm 11 mps 712 mmHg 7%
    17:00 +35°C° 0 mm 9 mps 712 mmHg 8%
    18:00 +34°C° 0 mm 8 mps 712 mmHg 9%
    19:00 +32°C° 0 mm 7 mps 713 mmHg 11%
    20:00 +29°C° 0 mm 6 mps 713 mmHg 12%
    21:00 +28°C° 0 mm 5 mps 714 mmHg 14%
    22:00 +27°C° 0 mm 5 mps 714 mmHg 15%
    23:00 +26°C° 0 mm 5 mps 713 mmHg 16%

    26 September, Tuesday

    Time Temperature Precipitation Wind Pressure Humidity
    00:00 +25°C° 0 mm 4 mps 713 mmHg 18%
    01:00 +25°C° 0 mm 4 mps 713 mmHg 19%
    02:00 +23°C° 0 mm 4 mps 713 mmHg 21%
    03:00 +22°C° 0 mm 4 mps 712 mmHg 22%
    04:00 +22°C° 0 mm 4 mps 713 mmHg 23%
    05:00 +21°C° 0 mm 4 mps 713 mmHg 24%
    06:00 +20°C° 0 mm 3 mps 713 mmHg 26%
    07:00 +23°C° 0 mm 5 mps 714 mmHg 24%
    08:00 +27°C° 0 mm 6 mps 715 mmHg 21%
    09:00 +31°C° 0 mm 8 mps 716 mmHg 19%
    10:00 +33°C° 0 mm 9 mps 715 mmHg 18%
    11:00 +36°C° 0 mm 11 mps 715 mmHg 16%
    12:00 +37°C° 0 mm 13 mps 715 mmHg 14%
    13:00 +38°C° 0 mm 13 mps 714 mmHg 14%
    14:00 +38°C° 0 mm 13 mps 713 mmHg 14%
    15:00 +40°C° 0 mm 14 mps 713 mmHg 13%
    16:00 +37°C° 0 mm 12 mps 713 mmHg 15%
    17:00 +36°C° 0 mm 10 mps 713 mmHg 17%
    18:00 +34°C° 0 mm 9 mps 714 mmHg 19%
    19:00 +32°C° 0 mm 7 mps 714 mmHg 21%
    20:00 +29°C° 0 mm 6 mps 715 mmHg 23%
    21:00 +28°C° 0 mm 5 mps 716 mmHg 26%
    22:00 +27°C° 0 mm 4 mps 716 mmHg 25%
    23:00 +27°C° 0 mm 4 mps 716 mmHg 25%

    27 September, Wednesday

    Time Temperature Precipitation Wind Pressure Humidity
    00:00 +26°C° 0 mm 3 mps 715 mmHg 25%
    01:00 +26°C° 0 mm 3 mps 715 mmHg 25%
    02:00 +25°C° 0 mm 3 mps 715 mmHg 25%
    03:00 +25°C° 0 mm 3 mps 715 mmHg 25%
    04:00 +24°C° 0 mm 3 mps 715 mmHg 26%
    05:00 +24°C° 0 mm 3 mps 715 mmHg 27%
    06:00 +22°C° 0 mm 3 mps 716 mmHg 27%
    07:00 +23°C° 0 mm 4 mps 717 mmHg 26%
    08:00 +26°C° 0 mm 5 mps 717 mmHg 24%
    09:00 +27°C° 0 mm 5 mps 718 mmHg 22%
    10:00 +28°C° 0 mm 5 mps 718 mmHg 21%
    11:00 +30°C° 0 mm 5 mps 717 mmHg 20%
    12:00 +32°C° 0 mm 4 mps 717 mmHg 18%
    13:00 +32°C° 0 mm 5 mps 716 mmHg 19%
    14:00 +33°C° 0 mm 6 mps 716 mmHg 20%
    15:00 +33°C° 0 mm 6 mps 715 mmHg 21%
    16:00 +29°C° 0 mm 8 mps 715 mmHg 30%
    17:00 +24°C° 0 mm 9 mps 715 mmHg 39%
    18:00 +19°C° 0 mm 10 mps 715 mmHg 49%
    19:00 +19°C° 0.1 mm 9 mps 716 mmHg 53%
    20:00 +18°C° 0.1 mm 8 mps 717 mmHg 58%
    21:00 +17°C° 0.1 mm 7 mps 718 mmHg 62%
    22:00 +17°C° 1 mm 6 mps 718 mmHg 65%
    23:00 +17°C° 1 mm 5 mps 718 mmHg 68%

    28 September, Thursday

    Time Temperature Precipitation Wind Pressure Humidity
    00:00 +17°C° 1 mm 4 mps 718 mmHg 71%
    01:00 +17°C° 1.2 mm 4 mps 717 mmHg 71%
    02:00 +17°C° 1.2 mm 4 mps 717 mmHg 71%
    03:00 +17°C° 1.2 mm 4 mps 717 mmHg 71%
    04:00 +16°C° 1 mm 5 mps 717 mmHg 71%
    05:00 +16°C° 1 mm 5 mps 717 mmHg 71%
    06:00 +16°C° 1 mm 6 mps 718 mmHg 71%
    07:00 +16°C° 0.5 mm 6 mps 718 mmHg 70%
    08:00 +16°C° 0.5 mm 6 mps 718 mmHg 69%
    09:00 +16°C° 0.5 mm 6 mps 718 mmHg 69%
    10:00 +16°C° 0.6 mm 6 mps 718 mmHg 69%
    11:00 +16°C° 0.6 mm 6 mps 717 mmHg 70%
    12:00 +16°C° 0.6 mm 6 mps 717 mmHg 71%
    13:00 +16°C° 0.2 mm 6 mps 717 mmHg 69%
    14:00 +17°C° 0.2 mm 5 mps 716 mmHg 67%
    15:00 +17°C° 0.2 mm 5 mps 716 mmHg 66%
    16:00 +17°C° 0.3 mm 5 mps 716 mmHg 67%
    17:00 +18°C° 0.3 mm 4 mps 717 mmHg 69%
    18:00 +18°C° 0.3 mm 4 mps 717 mmHg 70%
    19:00 +18°C° 0.3 mm 4 mps 717 mmHg 72%
    20:00 +18°C° 0.3 mm 4 mps 718 mmHg 74%
    21:00 +18°C° 0.3 mm 4 mps 718 mmHg 76%
    22:00 +17°C° 0.7 mm 4 mps 718 mmHg 78%
    23:00 +16°C° 0.7 mm 5 mps 718 mmHg 79%
    Show more